Location: Moscow
(55.7500°N, 37.5830°E)
Time: 20:39:17
(UTC+03:00)

Transit 2A Rocket - Pass Details

Date: 06 December 2021
Orbit: 584 x 917 km, 66.7° (Epoch: 23 January)

Event Time Altitude Azimuth Distance (km) Brightness Sun altitude
Rises 06:20:10 0° 159° (SSE) 3,365 8.8 -18.5°
Reaches altitude 10° 06:23:31 10° 139° (SE) 2,495 8.4 -18.1°
Maximum altitude 06:26:52 16° 103° (ESE) 2,154 8.4 -17.6°
Drops below altitude 10° 06:30:18 10° 68° (ENE) 2,588 8.5 -17.1°
Sets 06:33:52 0° 49° (NE) 3,559 8.9 -16.6°
